Weather History for Volkel, Netherlands

Change the Weather History Date:

Tuesday, December 18, 2012

  Actual Average Record
Temperature  
Mean Temperature 40 °F -  
Max Temperature 42 °F 40 °F 55 °F (2014)
Min Temperature 37 °F 31 °F 17 °F (2010)
Degree Days  
Heating Degree Days 26    
Moisture  
Dew Point 40 °F    
Average Humidity 96    
Maximum Humidity 100    
Minimum Humidity 93    
Precipitation  
Precipitation 0.00 in - - ()
Sea Level Pressure  
Sea Level Pressure 29.89 in    
Wind  
Wind Speed 6 mph ()    
Max Wind Speed 10 mph    
Max Gust Speed -    
Visibility 3.1 miles    
Events Fog , Rain    
Averages and records for this station are not official NWS values.
T = Trace of Precipitation, MM = Missing Value Source: Averaged Metar Reports

Daily Weather History Graph

Daily Weather History Graph

Search for Another Location

Airport:

Trip Planner

Search our weather history database for the weather conditions in past years. The results will help you decide how hot, cold, wet, or windy it might be!

Date:

Astronomy

Dec. 18, 2012 Rise Set
Actual Time 8:39 AM CET 4:28 PM CET
Civil Twilight 7:59 AM CET 5:08 PM CET
Nautical Twilight 7:15 AM CET 5:52 PM CET
Astronomical Twilight 6:34 AM CET 6:33 PM CET
Moon 11:34 AM CET (12/18) 11:18 PM CET (12/18)
Length of Visible Light 9h 09m
Length of Day
7h 48m
Waxing Crescent, 32% of the Moon is Illuminated
Dec 18
Waxing Crescent
Dec 20
First Quarter
Dec 28
Full
Jan 5
Last Quarter
Jan 11
New

Hourly Weather History & Observations

Time (CET) Temp. Windchill Dew Point Humidity Pressure Visibility Wind Dir Wind Speed Gust Speed Precip Events Conditions
1:11 AM 37.4 °F 32.1 °F 37.4 °F 100% 29.74 in 3.1 mi SW 6.9 mph - N/A   Scattered Clouds
1:15 AM 39.2 °F 33.6 °F 39.2 °F 100% 29.74 in 3.1 mi SW 8.1 mph - N/A   Mostly Cloudy
1:19 AM 41.0 °F 35.8 °F 41.0 °F 100% 29.74 in 3.1 mi SW 8.1 mph - N/A   Overcast
1:25 AM 41.0 °F 34.7 °F 41.0 °F 100% 29.74 in 3.1 mi SW 10.4 mph - N/A   Overcast
1:43 AM 41.0 °F 34.7 °F 41.0 °F 100% 29.74 in 3.1 mi SW 10.4 mph - N/A   Overcast
1:55 AM 41.0 °F 34.7 °F 41.0 °F 100% 29.74 in 3.7 mi SW 10.4 mph - N/A   Overcast
2:25 AM 41.0 °F 35.2 °F 39.2 °F 93% 29.74 in 3.7 mi SW 9.2 mph - N/A   Overcast
2:48 AM 39.2 °F 34.2 °F 39.2 °F 100% 29.74 in 4.3 mi SW 6.9 mph - N/A   Overcast
2:55 AM 39.2 °F 34.2 °F 37.4 °F 93% 29.74 in 3.7 mi SSW 6.9 mph - N/A   Overcast
3:25 AM 39.2 °F 34.2 °F 37.4 °F 93% 29.74 in 3.7 mi SSW 6.9 mph - N/A   Mostly Cloudy
3:30 AM 37.4 °F 32.1 °F 37.4 °F 100% 29.74 in 3.7 mi SSW 6.9 mph - N/A   Scattered Clouds
3:39 AM 39.2 °F 34.2 °F 37.4 °F 93% 29.74 in 3.7 mi SSW 6.9 mph - N/A   Scattered Clouds
3:43 AM 39.2 °F 35.0 °F 39.2 °F 100% 29.74 in 3.7 mi SSW 5.8 mph - N/A   Mostly Cloudy
3:55 AM 39.2 °F 34.2 °F 39.2 °F 100% 29.74 in 3.7 mi SSW 6.9 mph - N/A   Mostly Cloudy
4:03 AM 39.2 °F 33.6 °F 39.2 °F 100% 29.77 in 5.0 mi SSW 8.1 mph - N/A   Mostly Cloudy
4:08 AM 39.2 °F 34.2 °F 39.2 °F 100% 29.77 in 4.3 mi SSW 6.9 mph - N/A   Overcast
4:15 AM 39.2 °F 34.2 °F 39.2 °F 100% 29.77 in 5.0 mi SSW 6.9 mph - N/A   Mostly Cloudy
4:19 AM 39.2 °F 34.2 °F 37.4 °F 93% 29.77 in 4.3 mi SSW 6.9 mph - N/A   Mostly Cloudy
4:25 AM 39.2 °F 34.2 °F 37.4 °F 93% 29.77 in 4.3 mi SSW 6.9 mph - N/A   Scattered Clouds
4:55 AM 39.2 °F 34.2 °F 39.2 °F 100% 29.77 in 3.7 mi SSW 6.9 mph - N/A   Overcast
5:14 AM 39.2 °F 34.2 °F 39.2 °F 100% 29.77 in 4.3 mi SSW 6.9 mph - N/A   Overcast
5:18 AM 39.2 °F 34.2 °F 39.2 °F 100% 29.77 in 4.3 mi SSW 6.9 mph - N/A   Mostly Cloudy
5:25 AM 39.2 °F 34.2 °F 39.2 °F 100% 29.77 in 4.3 mi SSW 6.9 mph - N/A   Mostly Cloudy
5:35 AM 39.2 °F 34.2 °F 39.2 °F 100% 29.77 in 4.3 mi SSW 6.9 mph - N/A   Mostly Cloudy
5:39 AM 39.2 °F 34.2 °F 39.2 °F 100% 29.77 in 4.3 mi SSW 6.9 mph - N/A   Overcast
5:55 AM 39.2 °F 34.2 °F 39.2 °F 100% 29.77 in 3.7 mi SW 6.9 mph - N/A   Overcast
5:57 AM 39.2 °F 34.2 °F 39.2 °F 100% 29.77 in 3.7 mi SW 6.9 mph - N/A   Mostly Cloudy
6:08 AM 39.2 °F 35.0 °F 39.2 °F 100% 29.77 in 3.7 mi SSW 5.8 mph - N/A Rain Light Rain
6:15 AM 39.2 °F 35.0 °F 39.2 °F 100% 29.77 in 3.7 mi SSW 5.8 mph - N/A Rain Light Rain
6:20 AM 39.2 °F 35.0 °F 39.2 °F 100% 29.77 in 3.7 mi SSW 5.8 mph - N/A   Mostly Cloudy
6:25 AM 39.2 °F 34.2 °F 39.2 °F 100% 29.77 in 3.7 mi SSW 6.9 mph - N/A   Mostly Cloudy
6:30 AM 39.2 °F 34.2 °F 39.2 °F 100% 29.77 in 3.7 mi SSW 6.9 mph - N/A   Overcast
6:40 AM 39.2 °F 34.2 °F 39.2 °F 100% 29.77 in 3.7 mi SSW 6.9 mph - N/A   Mostly Cloudy
6:47 AM 39.2 °F 35.0 °F 39.2 °F 100% 29.77 in 3.7 mi SSW 5.8 mph - N/A   Overcast
6:55 AM 39.2 °F 34.2 °F 39.2 °F 100% 29.80 in 3.7 mi SSW 6.9 mph - N/A   Overcast
6:59 AM 41.0 °F 36.4 °F 39.2 °F 93% 29.80 in 3.7 mi SSW 6.9 mph - N/A   Overcast
7:10 AM 41.0 °F 36.4 °F 39.2 °F 93% 29.80 in 3.7 mi SSW 6.9 mph - N/A   Overcast
7:15 AM 41.0 °F 37.1 °F 39.2 °F 93% 29.80 in 3.7 mi SSW 5.8 mph - N/A   Overcast
7:19 AM 41.0 °F 37.1 °F 39.2 °F 93% 29.80 in 3.7 mi SSW 5.8 mph - N/A   Overcast
7:25 AM 41.0 °F 36.4 °F 39.2 °F 93% 29.80 in 3.7 mi SSW 6.9 mph - N/A   Overcast
7:28 AM 41.0 °F 36.4 °F 39.2 °F 93% 29.80 in 3.7 mi SSW 6.9 mph - N/A   Mostly Cloudy
7:30 AM 41.0 °F 36.4 °F 39.2 °F 93% 29.80 in 3.7 mi SSW 6.9 mph - N/A   Overcast
7:55 AM 41.0 °F 36.4 °F 39.2 °F 93% 29.80 in 3.7 mi SSW 6.9 mph - N/A   Overcast
7:59 AM 41.0 °F 36.4 °F 39.2 °F 93% 29.80 in 3.7 mi SSW 6.9 mph - N/A   Overcast
8:05 AM 41.0 °F 36.4 °F 39.2 °F 93% 29.80 in 3.7 mi SSW 6.9 mph - N/A   Overcast
8:09 AM 41.0 °F 35.8 °F 39.2 °F 93% 29.80 in 3.7 mi SSW 8.1 mph - N/A   Overcast
8:25 AM 41.0 °F 35.8 °F 39.2 °F 93% 29.83 in 3.1 mi SSW 8.1 mph - N/A   Overcast
8:55 AM 41.0 °F 35.2 °F 39.2 °F 93% 29.83 in 3.7 mi SSW 9.2 mph - N/A   Overcast
9:12 AM 41.0 °F 35.2 °F 41.0 °F 100% 29.83 in - SW 9.2 mph - N/A   Overcast
9:25 AM 41.0 °F 35.2 °F 41.0 °F 100% 29.83 in 3.1 mi SW 9.2 mph - N/A   Overcast
9:38 AM 41.0 °F 35.8 °F 41.0 °F 100% 29.83 in 3.1 mi SW 8.1 mph - N/A   Overcast
9:55 AM 41.0 °F 35.2 °F 41.0 °F 100% 29.86 in 3.1 mi SSW 9.2 mph - N/A   Overcast
10:25 AM 42.8 °F 38.0 °F 41.0 °F 93% 29.86 in 3.7 mi SW 8.1 mph - N/A   Overcast
10:55 AM 42.8 °F 38.0 °F 41.0 °F 93% 29.86 in 4.3 mi SW 8.1 mph - N/A   Overcast
11:25 AM 42.8 °F 37.0 °F 41.0 °F 93% 29.89 in 3.7 mi SW 10.4 mph - N/A   Overcast
11:55 AM 42.8 °F 38.6 °F 41.0 °F 93% 29.89 in - WSW 6.9 mph - N/A   Overcast
12:25 PM 42.8 °F 38.0 °F 41.0 °F 93% 29.89 in - SW 8.1 mph - N/A   Overcast
12:38 PM 42.8 °F 38.0 °F 41.0 °F 93% 29.89 in 3.1 mi SW 8.1 mph - N/A   Overcast
12:43 PM 42.8 °F 38.6 °F 41.0 °F 93% 29.89 in - WSW 6.9 mph - N/A   Overcast
12:55 PM 42.8 °F 38.6 °F 41.0 °F 93% 29.89 in 3.1 mi WSW 6.9 mph - N/A   Overcast
12:59 PM 42.8 °F 38.6 °F 41.0 °F 93% 29.89 in 3.7 mi WSW 6.9 mph - N/A   Mostly Cloudy
1:06 PM 42.8 °F 39.3 °F 41.0 °F 93% 29.89 in 3.7 mi WSW 5.8 mph - N/A   Overcast
1:11 PM 42.8 °F 39.3 °F 41.0 °F 93% 29.89 in 3.7 mi WSW 5.8 mph - N/A   Overcast
1:15 PM 42.8 °F 39.3 °F 41.0 °F 93% 29.89 in 3.7 mi WSW 5.8 mph - N/A   Overcast
1:19 PM 42.8 °F 39.3 °F 41.0 °F 93% 29.89 in 3.7 mi SW 5.8 mph - N/A   Overcast
1:25 PM 42.8 °F 40.1 °F 41.0 °F 93% 29.89 in 3.7 mi SW 4.6 mph - N/A   Mostly Cloudy
1:28 PM 42.8 °F 39.3 °F 41.0 °F 93% 29.89 in 3.7 mi SW 5.8 mph - N/A   Mostly Cloudy
1:47 PM 42.8 °F 38.6 °F 41.0 °F 93% 29.92 in 3.7 mi SW 6.9 mph - N/A   Overcast
1:55 PM 42.8 °F 38.6 °F 41.0 °F 93% 29.92 in 3.7 mi SW 6.9 mph - N/A   Overcast
1:57 PM 42.8 °F 38.6 °F 41.0 °F 93% 29.92 in 3.7 mi SW 6.9 mph - N/A   Mostly Cloudy
2:25 PM 42.8 °F 38.6 °F 41.0 °F 93% 29.92 in 3.7 mi SW 6.9 mph - N/A   Mostly Cloudy
2:48 PM 42.8 °F 38.6 °F 41.0 °F 93% 29.92 in 3.1 mi SW 6.9 mph - N/A   Mostly Cloudy
2:55 PM 42.8 °F 38.6 °F 41.0 °F 93% 29.92 in 3.1 mi SSW 6.9 mph - N/A   Mostly Cloudy
3:04 PM 42.8 °F 38.6 °F 41.0 °F 93% 29.92 in 3.1 mi SW 6.9 mph - N/A   Mostly Cloudy
3:08 PM 42.8 °F 39.3 °F 41.0 °F 93% 29.92 in 3.1 mi SW 5.8 mph - N/A   Mostly Cloudy
3:25 PM 42.8 °F 39.3 °F 41.0 °F 93% 29.92 in 3.1 mi SW 5.8 mph - N/A   Mostly Cloudy
3:38 PM 42.8 °F 39.3 °F 41.0 °F 93% 29.95 in 3.1 mi SW 5.8 mph - N/A   Overcast
3:55 PM 42.8 °F 40.1 °F 41.0 °F 93% 29.95 in 3.1 mi SW 4.6 mph - N/A   Overcast
4:05 PM 42.8 °F 40.1 °F 41.0 °F 93% 29.95 in 3.1 mi SW 4.6 mph - N/A   Overcast
4:25 PM 42.8 °F 41.1 °F 41.0 °F 93% 29.98 in 3.1 mi SW 3.5 mph - N/A   Overcast
4:33 PM 42.8 °F 40.1 °F 41.0 °F 93% 29.98 in - WSW 4.6 mph - N/A   Overcast
4:55 PM 42.8 °F 40.1 °F 41.0 °F 93% 29.98 in - WSW 4.6 mph - N/A   Overcast
5:10 PM 42.8 °F 41.1 °F 41.0 °F 93% 29.98 in - WSW 3.5 mph - N/A   Overcast
5:14 PM 42.8 °F - 41.0 °F 93% 29.98 in - WSW 2.3 mph - N/A   Overcast
5:21 PM 42.8 °F - 41.0 °F 93% 29.98 in - WSW 2.3 mph - N/A   Overcast
5:25 PM 42.8 °F - 41.0 °F 93% 29.98 in - West 2.3 mph - N/A   Overcast
5:29 PM 42.8 °F - 41.0 °F 93% 29.98 in - WSW 2.3 mph - N/A   Overcast
5:33 PM 42.8 °F - 41.0 °F 93% 30.01 in - WSW 2.3 mph - N/A   Overcast
5:37 PM 42.8 °F - 41.0 °F 93% 30.01 in 2.2 mi SW 2.3 mph - N/A   Overcast
5:55 PM 42.8 °F - 41.0 °F 93% 30.01 in - West 2.3 mph - N/A   Overcast
6:01 PM 42.8 °F - 41.0 °F 93% 30.01 in 2.2 mi West 2.3 mph - N/A   Overcast
6:25 PM 41.0 °F - 41.0 °F 100% 30.01 in - SW 2.3 mph - N/A   Overcast
6:35 PM 41.0 °F - 41.0 °F 100% 30.01 in - SSW 2.3 mph - N/A   Overcast
6:39 PM 41.0 °F - 41.0 °F 100% 30.01 in - SSW 2.3 mph - N/A   Overcast
6:55 PM 41.0 °F - 41.0 °F 100% 30.01 in - South 1.2 mph - N/A   Overcast
7:25 PM 42.8 °F - 41.0 °F 93% 30.04 in 1.9 mi West 2.3 mph - N/A   Overcast
7:55 PM 41.0 °F - 41.0 °F 100% 30.04 in 1.8 mi SSW 2.3 mph - N/A   Mostly Cloudy
7:59 PM 41.0 °F - 41.0 °F 100% 30.04 in 1.7 mi SW 2.3 mph - N/A   Overcast
8:14 PM 42.8 °F - 41.0 °F 93% 30.04 in 1.7 mi SW 1.2 mph - N/A   Overcast
8:25 PM 41.0 °F - 41.0 °F 100% 30.04 in 1.6 mi SSW 2.3 mph - N/A   Mostly Cloudy
8:55 PM 41.0 °F - 41.0 °F 100% 30.04 in 1.2 mi South 1.2 mph - N/A   Overcast
9:10 PM 41.0 °F - 41.0 °F 100% 30.04 in 0.9 mi ESE 1.2 mph - N/A   Mostly Cloudy
9:25 PM 41.0 °F - 39.2 °F 93% 30.06 in 1.0 mi ENE 1.2 mph - N/A   Light Drizzle
9:29 PM 41.0 °F - 41.0 °F 100% 30.06 in 0.9 mi ENE 1.2 mph - N/A   Overcast
9:55 PM 41.0 °F - 39.2 °F 93% 30.06 in 1.0 mi SW 1.2 mph - N/A   Overcast
9:59 PM 41.0 °F - 39.2 °F 93% 30.06 in 0.8 mi SSW 1.2 mph - N/A   Overcast
10:05 PM 41.0 °F - 39.2 °F 93% 30.06 in - South 1.2 mph - N/A Fog Fog
10:08 PM 39.2 °F - 39.2 °F 100% 30.06 in 0.5 mi South 1.2 mph - N/A Fog Fog
10:14 PM 41.0 °F - 39.2 °F 93% 30.06 in - SSW 1.2 mph - N/A Fog Fog
10:18 PM 39.2 °F - 39.2 °F 100% 30.06 in 0.7 mi SW 2.3 mph - N/A   Overcast
10:25 PM 39.2 °F - 39.2 °F 100% 30.06 in 0.6 mi SW 2.3 mph - N/A   Overcast
10:27 PM 39.2 °F - 39.2 °F 100% 30.06 in 1.0 mi SW 2.3 mph - N/A   Overcast
10:33 PM 41.0 °F - 39.2 °F 93% 30.06 in 0.8 mi SW 2.3 mph - N/A   Overcast
10:37 PM 39.2 °F - 39.2 °F 100% 30.06 in 0.9 mi WSW 2.3 mph - N/A   Overcast
10:38 PM 39.2 °F - 39.2 °F 100% 30.06 in 1.0 mi WSW 2.3 mph - N/A   Overcast
10:55 PM 39.2 °F - 39.2 °F 100% 30.06 in 1.1 mi SW 2.3 mph - N/A   Overcast
11:14 PM 41.0 °F - 39.2 °F 93% 30.09 in 1.1 mi SW 1.2 mph - N/A   Overcast
11:25 PM 41.0 °F - 41.0 °F 100% 30.09 in 1.2 mi WSW 1.2 mph - N/A   Overcast
11:55 PM 41.0 °F - 41.0 °F 100% 30.09 in 1.2 mi SW 1.2 mph - N/A   Overcast